Regional Weather Roundup
Issued by NWS Green Bay, WI

Home | Current Version | Previous Version | Text Only | Print | Product List | Glossary On
Versions: 1 2 3 4 5 6 7 8 9 10 11 12 13 14 15 16 17 18 19 20 21 22 23 24 25 26 27 28 29 30 31 32 33 34 35 36 37 38 39 40 41 42 43 44 45 46 47 48 49 50
000
ASUS43 KGRB 292311
RWRGRB

NORTH-CENTRAL AND NORTHEAST WISCONSIN REGIONAL WEATHER ROUNDUP
NATIONAL WEATHER SERVICE GREEN BAY WI
600 PM CDT SAT APR 29 2017

WIZ005-009-010>012-018-019-300000-
NORTH CENTRAL WISCONSIN

CITY           SKY/WX    TMP DP  RH WIND       PRES   REMARKS
IRONWOOD       CLOUDY    40  23  50 N8        30.33F
MANITOWISH WTR PTSUNNY   47  20  34 E12       30.27F
ARBOR VITAE    CLOUDY    49  22  34 NE6       30.25F
EAGLE RIVER    CLOUDY    47  19  31 NE9       30.25F
LAND O LAKES   CLOUDY    47  20  33 NE8       30.29F
RHINELANDER    PTSUNNY   49  24  37 NE6       30.24F
PHILLIPS       CLOUDY    48  24  38 NE10      30.25F
ANTIGO         CLOUDY    48  29  48 NE15      30.21F
TOMAHAWK       PTSUNNY   48  24  39 N10       30.24F
MERRILL        PTSUNNY   50  28  42 NE12      30.21F
$$

WIZ013-073-300000-
NORTHEAST WISCONSIN

CITY           SKY/WX    TMP DP  RH WIND       PRES   REMARKS
IRON MOUNTAIN  PTSUNNY   49  16  26 NE10      30.27F
MARINETTE      CLOUDY    45  28  51 NE14      30.26F
OCONTO         CLOUDY    46  26  45 NE9G16    30.24F
$$

WIZ017-030-035>037-045-300000-
CENTRAL WISCONSIN

CITY           SKY/WX    TMP DP  RH WIND       PRES   REMARKS
MEDFORD        CLOUDY    48  27  44 NE14      30.20F
WAUSAU         CLOUDY    50  27  40 NE12G20   30.18F
MOSINEE        NOT AVBL
MARSHFIELD     CLOUDY    50  29  44 NE13      30.17F
WISC RAPIDS    CLOUDY    49  30  48 E10       30.21F
STEVENS POINT  CLOUDY    47  29  48 E9        30.21S
WAUPACA        CLOUDY    47  31  54 E8        30.24R
SHAWANO        CLOUDY    49  32  53 E8        30.23F
CLINTONVILLE   CLOUDY    45  30  57 E8G16     30.23S
WAUTOMA        CLOUDY    46  30  53 E10       30.24R
$$

WIZ038-039-048-051-300000-
FOX VALLEY

CITY           SKY/WX    TMP DP  RH WIND       PRES   REMARKS
NWS GREEN BAY  CLOUDY    47  33  58 NE15G23   30.25R
APPLETON       CLOUDY    46  25  42 NE14G21   30.23R
OSHKOSH        CLOUDY    45  29  53 NE14G25   30.24R
FOND DU LAC    CLOUDY    44  26  49 NE14G25   30.25R
$$

WIZ022-050-052-300000-
EAST CENTRAL WISCONSIN

CITY           SKY/WX    TMP DP  RH WIND       PRES   REMARKS
EPHRAIM        FAIR      43  30  61 N9        30.25F
WASHINGTON ISL FAIR      43  29  57 NE6       30.27F
STURGEON BAY   CLOUDY    45  29  53 NE10      30.25F
MANITOWOC      CLOUDY    43  27  53 VRB7G16   30.27R
SHEBOYGAN      CLOUDY    42  34  73 NE21      30.25R
$$

LMZ563-521-522-541>543-300000-
LAKESHORE

STATION/POSITION TIME  TEMP    WIND        PRES    VSBY  WAVE
                       AIR SEA DIR/SP/G                  HT/PER
                 (UTC) (F)     (DEG/KT/KT) (MB)    (MI)  (FT/S)
SHEBOYGAN LKSHOR 2300   40      20/ 22/ 24 1024.7R
KEWAUNEE LKSHORE 2248   42      30/ 10/ 16 1023.5F
NORTHPORT PIER   2240   42     330/  5/  6 1025.1F
N MID LAKE BUOY  2250   39 37  340/  4/  6 1026.8F         1
CHAMBERS ISLAND  2230   45      40/ 10/ 15 1024.7F
MENOMINEE LKSHOR 2248   44      50/ 12/ 14 1023.7F
$$




USA.gov is the U.S. government's official web portal to all federal, state and local government web resources and services.